Regional Weather Roundup
Issued by NWS Jackson, KY

Home | Current Version | Previous Version | Text Only | Print | Product List | Glossary Off
Versions: 1 2 3 4 5 6 7 8 9 10 11 12 13 14 15 16 17 18 19 20 21 22 23 24 25 26 27

000
ASUS43 KJKL 210110
RWRJKL

EAST KENTUCKY HOURLY WEATHER ROUNDUP
NATIONAL WEATHER SERVICE JACKSON KY
900 PM EDT WED SEP 20 2017

NOTE: "FAIR" INDICATES FEW OR NO CLOUDS BELOW 12,000 FEET WITH
NO SIGNIFICANT WEATHER AND/OR OBSTRUCTIONS TO VISIBILITY.

* THESE REPORTS ARE NOT UNDER NWS QUALITY CONTROL AND MAY NOT
  REPORT WEATHER SUCH AS PRECIPITATION AND FOG.

KYZ079-080-083-085-087-088-110-112-115-119-120-210200
...EASTERN KENTUCKY...

CITY           SKY/WX    TMP DP  RH WIND       PRES   REMARKS
JACKSON        CLEAR     75  64  68 CALM      30.06R
LONDON         CLEAR     73  68  84 CALM      30.05R
SOMERSET*      CLEAR     72  70  94 CALM      30.05R
WILLIAMSBURG*  CLEAR     73  72  94 CALM      30.05S
MIDDLESBORO*   CLEAR     71  67  87 CALM      30.07R
HARLAN APT*    CLEAR     68  64  88 CALM      30.08R
PIKE CO APT*     N/A     75  64  68 NW3       30.07R
BIG SANDY APT* CLEAR     70  67  89 CALM      30.06R
MOREHEAD APT*  PTCLDY    73  66  78 CALM      30.06R
$$

KYZ035-036-041-042-044-050-067-078-099-210200
...CENTRAL KENTUCKY...

CITY           SKY/WX    TMP DP  RH WIND       PRES   REMARKS
MT STERLING*   CLEAR     70  68  94 CALM      30.06R
FLEMING/MASON* PTCLDY    75  66  74 CALM      30.05R
DANVILLE*      CLEAR     72  70  94 CALM      30.05S
LEXINGTON      CLEAR     78  68  71 CALM      30.04R
FRANKFORT      CLEAR     73  68  84 CALM      30.01S
LOUISVILLE     PTCLDY    79  71  76 SE5       29.99R
LEBANON*         N/A     77  68  73 CALM      30.03R
GLASGOW*       CLEAR     72  67  85 CALM      30.01S
BOWLING GREEN  CLEAR     79  73  82 CALM      30.00R
$$

KYZ091>093-OHZ055-061-077-WVZ005-015-034-035-042-210200
...SOUTHERN OHIO/WEST VIRGINIA...

CITY           SKY/WX    TMP DP  RH WIND       PRES   REMARKS
COVINGTON      PTCLDY    74  69  85 CALM      30.02R
COLUMBUS       MOCLDY    75  67  76 CALM      30.01R
DAYTON         PTCLDY    75  66  73 S6        30.03R
WILMINGTON     CLEAR     71  69  93 CALM      30.02S
HUNTINGTON     MOCLDY    74  67  78 CALM      30.03R
CHARLESTON     PTCLDY    70  65  84 SE3       30.04R
PINEVILLE*     PTCLDY    67  64  89 MISG      30.13S
BECKLEY        PTCLDY    64  62  93 CALM      30.12R
BLUEFIELD      MOCLDY    67  58  72 CALM      30.14R
LOGAN CO APT*    N/A     72  64  78 CALM      30.08R
$$

VAZ002-007-008-TNZ017-027-036-066-071-210200
...SOUTHWEST VIRGINIA/EAST TENNESSEE...

CITY           SKY/WX    TMP DP  RH WIND       PRES   REMARKS
WISE*          CLEAR     70  59  68 CALM      30.14S
JONESVILLE*      N/A     68  64  88 CALM      30.09R
ABINGDON*      CLEAR     69  64  81 CALM      30.10R
BRISTOL        CLEAR     69  63  81 CALM      30.06R
MORRISTOWN*    CLEAR     75  64  69 CALM      30.04R
SEVIERVILLE*   CLEAR     72  63  73 CALM      30.04R
KNOXVILLE      PTCLDY    76  67  73 CALM      30.03R
LAFOLLETTE*    CLEAR     68  66  94 CALM      30.08S
OAK RIDGE      CLEAR     74  69  85 CALM      30.05R
CROSSVILLE     CLOUDY    68  66  93 CALM      30.09R
NASHVILLE      PTCLDY    79  70  74 S3        30.01R
$$

...KEY TO REMARKS...
VSB - VISIBILITY IN MILES
WCI - WIND CHILL INDEX
HX  - HEAT INDEX

$$




USA.gov is the U.S. government's official web portal to all federal, state and local government web resources and services.